GFSNGP_250_spd_000.txt.gz
Wind_Speed
39 42 39 43 52 60 62 66 66 59 70 74 74 75 79 81 83 84 87 92 92 92 95 103 105 107 107 110 113 117 122 121 107 94 82 74 70 69 68 67 68 70 70 70
31 38 41 44 58 60 65 68 71 74 69 77 76 80 83 86 88 89 91 96 98 101 102 111 112 112 112 115 116 120 124 117 105 90 79 74 70 69 69 69 70 70 67 66
38 44 45 48 60 60 62 69 74 76 79 78 78 81 83 88 91 94 95 97 101 104 106 111 118 117 117 118 117 121 123 113 99 85 77 72 70 69 69 69 69 66 64 63
46 50 48 56 67 66 68 74 82 78 79 82 81 78 84 92 93 94 99 103 108 111 109 117 121 123 122 123 121 121 122 105 92 79 74 71 69 69 69 68 64 62 60 57
55 53 52 62 71 71 72 72 76 77 78 80 81 80 85 94 96 98 106 111 113 116 117 122 125 127 129 127 125 124 112 97 86 77 72 70 70 69 68 64 61 58 54 53
63 59 55 65 69 70 70 71 74 78 80 83 86 91 87 95 101 107 111 116 120 120 120 126 129 130 132 128 124 119 101 91 82 76 71 69 69 68 65 60 56 54 50 48
63 64 63 70 72 75 78 78 80 85 88 88 91 97 101 104 107 113 119 122 124 125 126 129 133 133 131 126 121 104 93 84 79 74 70 69 68 65 61 57 52 49 46 44
68 72 71 75 77 80 82 82 86 84 90 94 97 101 106 110 115 118 120 123 125 128 129 132 133 135 124 124 107 95 89 81 76 72 70 67 64 62 57 54 50 46 43 41
76 72 77 79 81 83 87 88 87 92 94 101 103 106 111 113 118 122 127 130 129 131 131 134 134 124 122 113 99 91 83 77 72 70 69 65 60 58 53 50 47 44 41 39
79 76 80 82 87 90 89 91 94 97 100 103 108 112 115 120 124 130 133 136 127 127 132 133 127 121 113 101 93 85 77 72 69 69 67 62 56 54 50 48 44 42 39 37
80 83 82 91 95 95 93 97 104 107 110 112 113 117 121 125 131 134 139 131 127 131 131 130 119 115 99 95 87 78 72 70 68 66 63 60 53 51 47 44 41 39 37 34
89 91 95 88 95 100 100 104 109 112 112 115 119 121 124 128 136 134 136 131 130 128 127 122 114 98 96 89 80 73 70 68 66 62 61 56 51 46 44 41 39 36 34 31
97 96 97 97 93 97 104 110 113 115 118 121 126 127 130 134 135 139 140 133 129 129 125 113 98 95 90 81 74 70 68 67 62 59 57 53 48 45 42 39 36 33 30 27
106 107 104 106 110 115 118 120 122 125 127 131 135 135 137 139 142 142 136 131 128 122 112 97 93 90 81 75 70 68 66 63 59 57 54 49 47 44 41 37 33 30 27 23
112 115 118 118 120 123 127 128 129 134 137 140 140 144 143 141 145 135 131 123 118 109 96 93 88 80 74 70 67 66 63 59 56 52 50 47 44 41 38 34 30 27 24 21
118 120 124 127 130 132 133 137 139 144 142 148 147 142 138 140 131 127 120 114 105 97 93 87 78 73 69 67 65 63 60 57 52 48 48 45 41 38 35 31 28 25 22 19
128 129 131 133 137 137 139 144 148 145 152 140 130 130 132 124 121 115 104 100 94 90 84 77 72 68 67 65 63 60 58 53 48 46 45 42 39 34 32 27 25 22 20 18
135 136 138 142 144 148 147 147 142 136 126 124 123 120 119 112 107 98 93 89 86 80 75 70 67 65 65 62 59 57 53 49 46 43 42 40 36 31 29 25 22 20 19 16
142 144 145 143 134 121 120 119 117 118 117 116 114 109 103 96 91 90 87 82 77 72 69 66 64 63 62 58 56 52 50 48 44 40 39 37 33 29 27 23 20 18 18 16
138 134 121 117 113 110 112 112 111 108 104 102 96 92 87 86 87 85 78 73 69 67 65 63 63 61 58 56 52 48 47 44 42 38 37 34 31 28 24 22 19 17 17 17
105 104 104 104 103 102 102 97 93 92 90 86 84 83 86 85 81 75 70 67 65 64 63 61 60 58 56 52 48 45 44 42 40 36 35 32 30 27 23 21 19 17 17 16
96 94 92 88 87 86 87 85 83 82 81 82 83 84 80 77 71 67 65 64 63 62 62 61 57 55 51 48 45 43 42 40 37 35 33 30 28 26 22 20 19 18 17 16
85 84 83 85 84 84 81 80 80 82 81 80 78 76 72 67 64 64 62 60 60 59 58 56 55 50 48 45 43 42 40 38 35 33 31 28 27 24 21 20 19 18 17 17
83 81 81 82 82 81 81 79 79 78 77 74 70 68 65 62 60 60 59 58 58 57 55 54 49 47 45 43 41 40 38 35 33 30 28 27 25 23 20 19 19 19 18 17
79 78 78 80 79 78 78 76 74 71 69 66 64 61 59 58 58 57 56 56 55 54 53 48 46 44 43 42 41 39 36 33 30 27 26 26 24 21 20 19 19 19 19 18
76 75 75 75 74 73 71 69 66 63 61 59 57 56 55 55 55 55 54 53 52 51 47 45 43 42 42 41 38 35 33 30 27 25 25 24 22 20 19 19 20 20 20 20
72 71 69 67 66 64 62 61 59 57 55 53 52 53 53 53 53 52 52 51 49 45 44 42 41 41 39 37 35 32 30 27 26 24 22 21 21 20 20 19 19 19 20 20

GFSNGP_250_spd_003.txt.gz
Wind_Speed
45 45 42 42 54 59 59 58 57 50 64 66 70 73 73 76 78 80 81 85 90 92 95 99 103 107 109 116 121 121 118 117 119 121 112 103 90 83 79 74 70 68 66 64
43 45 43 44 56 64 64 65 66 67 64 73 72 74 78 80 84 85 88 93 94 95 97 102 107 111 116 121 124 124 120 120 118 117 109 95 87 81 76 71 68 67 64 61
39 48 47 52 58 63 63 66 68 67 68 70 75 80 83 84 87 88 89 92 96 100 103 106 110 116 119 125 126 130 124 120 120 112 101 91 84 79 75 70 68 65 63 60
44 49 50 55 60 63 63 69 74 76 78 80 81 82 86 91 89 88 92 95 101 104 106 111 116 121 126 129 132 135 128 126 116 105 93 88 81 76 72 69 66 64 61 60
56 54 53 58 68 66 69 70 76 81 82 83 86 87 89 95 94 95 101 103 106 109 112 116 123 128 131 137 134 136 127 123 107 96 92 85 79 74 71 67 65 61 59 56
66 63 60 68 75 72 74 75 76 82 86 89 93 95 94 96 97 100 102 108 109 113 119 125 130 133 139 143 136 134 123 113 100 92 89 81 75 72 69 66 62 59 57 54
70 69 64 72 74 75 77 79 84 91 93 93 97 102 103 102 102 104 110 114 117 124 127 133 138 140 145 137 136 128 119 104 94 90 83 77 72 70 67 62 60 56 54 50
73 77 75 79 80 84 83 87 93 90 95 98 100 102 104 106 107 113 116 121 128 131 135 136 144 148 141 132 131 118 105 95 91 84 78 72 68 67 64 58 57 54 50 46
85 83 85 86 88 90 97 99 99 102 102 104 104 106 107 109 116 122 125 132 133 137 142 145 150 149 132 129 118 106 96 91 85 78 72 69 66 64 60 57 53 50 47 43
90 88 90 91 95 100 103 105 104 107 111 112 114 115 115 118 123 127 131 134 140 144 149 154 146 135 126 117 106 96 91 85 78 73 70 67 64 60 57 54 50 47 43 40
93 93 97 99 104 106 108 108 110 113 117 121 124 124 126 127 129 133 135 140 145 146 153 137 130 124 116 104 94 90 84 78 73 70 66 65 61 57 55 50 47 44 40 37
102 101 105 100 107 114 114 116 119 124 126 128 130 133 135 136 138 140 145 147 146 152 129 122 120 114 101 91 88 84 77 73 70 67 65 62 58 55 50 48 45 41 37 34
110 111 112 113 115 118 123 126 128 130 135 136 137 139 140 141 143 143 145 139 141 125 120 116 107 96 88 86 83 77 72 70 67 64 61 59 55 50 47 45 41 37 34 31
120 122 122 123 126 128 131 132 134 139 142 140 140 141 141 143 142 140 137 131 123 115 110 100 91 85 84 81 76 72 69 66 64 61 57 56 50 47 45 42 38 33 30 28
123 126 131 133 134 138 138 138 137 136 134 133 133 130 131 133 133 131 120 118 113 105 94 87 84 83 79 74 70 67 66 63 61 57 55 52 48 45 41 38 35 30 28 25
127 130 129 130 129 130 129 126 124 120 121 122 122 122 121 116 110 110 109 104 94 87 84 84 81 77 71 68 65 64 63 62 57 54 50 49 45 41 38 35 31 28 25 23
127 124 126 127 123 116 114 116 111 112 108 105 102 102 104 103 99 95 89 85 84 83 83 78 74 69 67 65 63 61 60 56 55 50 48 45 40 38 35 32 28 25 23 21
122 123 117 110 104 103 99 97 97 99 97 97 96 95 92 89 90 87 85 83 83 79 76 71 68 66 64 61 61 60 56 53 50 47 43 41 38 35 32 29 26 24 21 20
115 109 105 102 98 94 90 88 87 88 87 86 85 87 87 87 85 84 83 79 77 72 68 66 64 62 60 59 58 56 53 50 47 42 40 39 36 33 30 26 24 22 20 19
97 98 97 92 89 89 87 86 85 85 83 84 84 84 84 84 82 79 77 75 70 67 65 63 60 58 58 57 55 53 49 46 42 40 39 37 34 31 28 24 22 21 20 18
93 90 87 84 85 84 84 85 85 84 83 83 82 80 80 79 78 74 72 67 66 62 61 59 57 56 56 54 51 48 46 43 40 39 37 35 32 29 25 22 20 20 20 19
90 88 85 84 84 84 84 83 81 81 79 78 78 76 75 72 71 68 65 63 60 59 58 56 56 55 52 49 47 45 43 40 39 38 36 33 30 26 23 22 19 18 19 19
88 87 87 85 83 82 80 79 78 76 75 74 73 71 69 66 64 63 60 58 57 56 55 55 54 51 49 46 45 43 41 40 39 36 34 31 28 24 22 21 20 18 18 19
88 86 85 84 81 79 77 75 74 72 71 70 68 65 62 62 60 57 56 55 54 54 54 53 50 48 46 44 42 43 41 38 35 33 31 29 25 23 22 20 19 19 18 19
85 83 81 79 77 75 72 70 69 68 65 63 61 60 58 57 54 54 53 53 52 52 51 49 47 44 43 41 41 41 38 35 32 30 28 27 24 23 21 19 18 19 19 18
77 76 74 72 70 67 66 64 63 61 59 57 56 55 53 52 52 51 51 51 51 49 47 45 43 42 40 40 39 37 35 32 30 27 26 25 23 21 20 19 17 18 19 19
69 68 66 66 64 63 60 58 57 55 54 53 52 51 50 51 50 49 50 50 48 46 45 43 41 38 38 37 34 33 32 30 27 24 23 23 22 20 19 18 18 17 18 18

GFSNGP_250_spd_006.txt.gz
Wind_Speed
48 45 41 42 47 54 58 61 60 56 63 65 69 73 75 80 82 84 85 90 94 97 100 103 103 104 106 105 113 117 123 124 129 133 139 125 115 109 103 97 89 86 80 74
38 45 43 44 52 56 60 62 65 66 68 76 76 80 83 83 85 85 90 95 97 99 103 106 107 106 107 112 118 122 126 130 135 135 135 114 109 105 99 92 87 80 75 69
39 47 50 54 60 64 64 67 70 71 73 75 78 80 82 85 88 90 97 99 99 103 105 107 110 113 118 122 126 131 134 136 136 136 117 109 106 101 94 88 82 75 71 66
49 52 51 58 70 73 69 72 74 74 77 81 82 86 90 93 94 97 103 104 105 108 110 114 119 121 125 130 135 136 139 140 139 121 113 108 102 94 89 83 76 72 68 65
57 59 61 66 76 76 75 74 80 81 85 87 89 88 92 99 101 106 111 112 113 115 117 119 125 128 134 137 139 139 139 137 129 117 109 102 94 89 84 77 73 70 67 64
65 63 63 72 76 80 83 82 86 90 94 96 97 99 99 105 109 112 115 117 120 122 129 130 132 136 139 139 139 137 135 130 116 111 101 92 88 84 77 73 70 67 66 60
70 75 72 81 82 83 86 84 89 94 98 99 101 107 111 111 113 117 120 124 129 132 135 137 139 141 141 137 132 126 122 111 110 100 92 88 83 77 73 71 69 66 63 58
78 81 78 84 87 90 93 92 98 97 101 105 108 111 116 120 124 126 127 132 135 138 140 140 136 131 127 126 119 113 105 104 98 91 86 82 77 73 71 69 67 63 59 54
86 89 89 89 93 94 100 103 103 107 110 114 121 123 126 129 131 133 135 136 132 131 128 124 122 121 119 112 106 103 101 94 88 84 83 78 72 69 68 67 64 59 55 49
87 90 95 94 98 105 107 109 112 116 117 119 124 125 129 129 130 132 130 125 124 120 120 119 114 108 102 101 101 94 89 85 83 81 78 72 69 66 64 63 60 56 51 47
95 97 100 101 110 113 116 116 116 117 121 123 125 126 128 127 125 122 119 118 116 112 109 104 98 98 98 96 90 87 84 83 80 76 71 69 67 64 63 59 56 51 48 44
103 104 110 108 109 110 114 116 118 122 125 125 127 122 120 119 115 113 110 105 101 100 99 99 97 94 92 90 87 85 83 79 74 70 68 66 64 64 58 57 51 49 45 41
112 107 106 112 116 119 127 132 130 129 124 124 122 120 112 107 104 101 100 100 99 98 93 92 90 89 89 87 85 82 78 74 68 67 65 63 61 59 59 51 48 45 41 37
111 113 117 122 127 130 130 131 127 124 124 119 109 102 99 99 98 95 94 94 93 92 90 90 89 87 86 85 81 77 73 68 65 65 62 60 58 56 52 48 44 41 37 34
120 121 128 133 136 130 128 122 120 121 110 102 98 96 94 95 95 95 94 93 91 90 91 88 87 85 82 79 75 70 67 65 63 60 59 57 55 50 48 43 40 37 34 30
124 127 137 131 133 127 123 120 114 106 98 96 95 93 94 94 93 93 94 94 92 90 88 85 83 81 77 73 69 66 62 61 60 59 56 54 49 46 43 39 37 34 30 28
132 136 131 129 121 119 113 106 98 94 94 93 94 92 93 93 93 93 92 91 88 84 83 81 79 75 70 67 64 61 60 58 57 55 53 49 45 42 40 37 34 31 28 26
130 129 127 124 118 110 102 97 94 94 90 91 92 90 92 91 90 89 86 83 81 80 78 77 72 68 65 62 60 59 58 57 55 52 48 45 42 40 37 35 32 29 26 25
129 123 116 112 109 100 95 94 93 94 92 92 92 92 89 86 83 82 80 79 77 75 74 70 66 63 60 59 58 57 56 53 51 47 44 41 39 37 35 32 30 27 24 23
117 109 107 104 102 99 96 96 97 97 95 93 91 86 82 79 78 77 76 74 73 69 65 64 61 59 58 57 56 55 53 50 46 43 41 39 38 36 32 29 27 25 22 22
106 103 102 99 96 95 96 94 93 93 92 87 82 78 76 75 74 73 71 68 66 65 61 59 57 56 55 55 54 51 49 46 43 40 39 38 35 32 29 27 24 23 22 21
105 101 99 96 94 92 92 92 91 87 81 77 75 73 72 72 70 66 64 63 62 59 57 56 55 54 53 52 50 48 45 42 40 40 37 34 31 28 26 24 22 21 22 20
102 96 95 93 91 90 88 86 81 77 74 72 71 71 69 66 64 63 61 59 58 56 55 54 53 52 51 49 47 44 42 41 41 37 34 32 29 27 25 23 22 21 21 20
92 90 89 88 87 84 80 76 73 71 70 69 68 65 63 62 60 59 57 56 55 54 54 53 52 50 47 45 44 43 41 41 38 34 32 31 28 26 24 22 22 21 20 20
86 85 83 81 79 76 72 70 68 67 66 64 62 61 59 58 56 55 54 53 53 53 52 52 49 47 45 43 42 41 40 38 33 32 31 30 27 25 23 22 21 20 20 19
77 76 73 73 69 67 66 65 63 62 60 59 57 57 55 54 52 52 52 52 51 51 51 48 46 44 43 41 39 39 38 33 31 30 30 29 27 24 23 21 20 19 19 19
68 67 66 65 63 62 60 59 59 57 56 54 54 53 51 50 50 50 50 50 50 50 48 46 43 43 41 39 38 37 34 31 30 29 29 27 26 25 22 20 19 19 19 19

GFSNGP_250_spd_012.txt.gz
Wind_Speed
31 33 37 44 46 50 54 56 55 57 60 61 65 69 74 78 79 81 86 91 94 97 100 104 107 109 112 116 120 121 119 117 116 116 113 106 101 97 94 91 90 87 83 77
41 43 44 48 48 48 51 54 58 61 65 68 71 76 78 81 83 90 96 99 101 104 108 111 112 114 116 119 116 115 115 114 111 108 101 98 93 87 82 78 75 72 74 70
44 47 47 51 52 56 59 65 66 68 71 76 79 81 86 88 89 99 103 105 106 107 108 110 114 118 120 116 113 111 108 105 102 100 97 95 90 87 82 78 76 74 71 69
42 44 46 62 56 60 63 70 73 74 76 81 83 83 88 95 98 102 109 109 112 115 117 117 122 120 114 111 107 103 99 98 97 95 93 90 84 82 79 79 75 72 72 67
51 51 53 66 63 66 68 72 77 79 82 85 88 87 92 97 105 112 113 117 121 120 119 122 123 116 113 108 102 98 94 94 95 94 91 89 85 82 79 78 75 73 68 63
59 62 62 70 71 74 75 76 81 84 85 88 92 94 99 106 108 114 118 123 131 127 125 125 119 113 111 103 98 96 95 96 95 93 89 85 81 78 76 72 70 69 65 57
68 68 70 78 80 82 81 80 83 87 87 94 102 107 111 113 116 122 127 133 134 130 131 129 120 115 105 100 98 97 96 95 93 90 86 82 76 71 69 68 66 62 58 53
72 75 80 81 83 87 87 86 89 92 99 104 110 113 117 122 126 128 133 138 136 133 130 123 117 108 104 102 100 99 97 94 92 87 81 75 72 69 67 64 60 57 53 50
78 76 84 86 90 91 94 95 98 105 109 113 116 120 126 130 133 135 139 138 134 133 124 116 108 105 103 102 101 98 95 92 88 82 77 72 69 67 63 58 55 52 48 47
83 85 88 91 94 97 100 103 109 113 114 119 123 127 132 136 138 140 138 135 131 124 115 107 105 105 103 100 97 93 90 86 80 76 73 69 65 60 55 52 50 49 46 44
89 93 91 98 99 102 107 113 116 117 122 127 129 132 134 137 136 133 133 128 119 115 111 108 103 99 96 93 89 87 82 79 75 71 69 65 59 55 52 46 47 47 45 42
96 99 101 100 104 108 112 114 117 124 132 133 133 135 138 135 134 134 125 117 112 110 107 102 99 94 90 87 84 78 75 72 70 66 61 57 55 51 47 43 43 45 43 41
103 104 108 110 114 118 118 124 129 132 140 139 135 136 134 132 131 123 116 111 109 104 101 96 92 88 85 80 76 73 70 67 63 59 55 51 49 48 47 44 39 41 39 38
107 110 114 117 124 125 128 133 137 140 139 139 137 134 130 126 120 113 112 108 102 97 94 89 85 81 76 73 70 68 65 61 58 55 52 49 46 45 44 43 39 36 34 34
119 118 119 123 126 129 132 138 142 141 142 136 132 128 123 115 112 111 105 101 97 92 88 83 78 73 71 69 66 63 59 56 54 52 50 48 46 44 41 38 35 33 32 30
120 122 125 128 132 136 140 147 140 136 132 130 126 119 112 111 108 105 101 96 91 86 80 75 72 70 68 64 61 58 55 53 51 50 49 47 44 41 37 34 32 30 30 29
127 128 132 137 136 143 143 139 134 126 123 119 114 111 109 106 103 98 92 87 82 78 74 71 69 66 63 60 57 55 52 51 50 49 47 44 40 37 35 33 31 31 31 30
132 133 137 141 139 133 131 128 123 117 112 111 111 108 103 98 93 88 83 79 75 72 70 68 65 62 59 56 54 52 51 50 50 49 44 41 38 37 34 33 33 31 29 27
129 132 131 127 124 122 120 113 108 106 107 107 104 97 92 89 84 80 77 74 71 69 66 63 61 57 54 52 51 51 50 50 49 47 43 40 38 35 34 32 29 28 27 25
122 119 121 118 114 111 107 106 103 101 102 98 90 85 82 79 76 73 72 69 66 64 62 59 56 54 51 50 50 50 49 47 46 43 40 38 34 34 31 28 27 26 25 23
120 119 113 106 104 103 104 102 96 93 90 84 80 77 75 72 71 69 66 64 61 59 56 54 52 50 50 49 49 49 46 44 42 41 38 35 33 30 27 26 25 24 23 22
109 104 102 103 101 97 94 90 85 81 79 76 73 72 71 69 66 63 61 59 57 53 51 50 49 49 48 48 48 47 44 42 42 39 36 33 31 28 26 25 25 22 22 20
98 96 96 95 90 84 82 80 77 75 75 73 71 68 65 63 60 58 56 54 51 50 50 48 48 48 48 47 45 44 43 41 40 39 35 32 30 27 25 25 24 22 20 20
96 95 91 87 82 77 74 73 72 71 70 67 65 62 59 57 55 54 52 50 49 48 47 47 47 48 47 45 43 41 40 40 38 37 34 31 29 27 25 24 23 22 21 20
90 84 80 76 72 70 71 70 68 66 63 61 58 56 55 54 52 51 49 48 47 46 46 47 47 47 45 44 43 41 39 38 37 35 32 31 29 27 26 25 23 22 21 20
77 74 72 71 68 68 66 64 61 58 57 56 54 54 53 51 49 47 46 45 45 45 45 46 46 44 44 44 42 41 39 36 34 34 32 31 30 29 28 26 24 22 22 21
71 69 67 66 63 61 59 56 54 53 53 52 51 51 49 47 46 45 44 44 44 44 45 44 44 43 42 43 43 41 39 37 34 33 33 33 32 30 28 26 24 22 21 20

GFSNGP_250_spd_015.txt.gz
Wind_Speed
30 32 35 42 45 48 46 47 46 51 57 61 64 68 72 75 77 79 81 83 87 96 99 105 109 112 118 123 125 129 131 128 123 115 108 100 98 95 93 92 91 88 87 85
38 38 41 46 47 47 49 53 54 58 63 67 72 76 77 78 80 83 83 89 97 102 109 112 116 121 126 129 131 130 124 121 111 107 102 97 94 92 89 87 85 83 80 78
43 46 48 51 51 53 55 61 62 63 69 74 77 80 82 82 86 89 93 100 106 111 116 121 125 126 127 130 129 123 118 110 105 100 97 95 93 91 89 88 86 81 77 73
47 48 50 63 56 58 62 67 70 72 76 78 81 84 86 89 92 97 103 107 108 115 120 128 130 130 131 132 127 121 113 106 101 97 95 92 92 89 86 83 79 75 70 66
54 52 53 67 64 66 68 68 75 76 80 83 87 88 91 95 101 107 109 112 117 126 130 135 137 135 132 129 127 116 109 104 101 98 95 90 86 83 81 78 73 69 67 64
59 57 59 70 67 69 71 73 79 82 86 89 91 92 96 97 104 113 117 122 126 131 138 140 141 136 131 127 118 112 110 106 100 94 89 85 81 79 75 71 68 66 64 59
64 66 66 73 74 79 80 81 82 88 91 93 98 101 104 108 113 119 123 125 133 137 143 143 139 134 129 121 115 112 107 101 96 89 83 80 77 71 67 65 62 60 58 53
68 73 76 80 80 81 84 86 91 95 97 101 105 110 113 116 120 124 130 134 139 142 142 138 134 127 120 117 114 108 103 97 89 84 79 74 70 65 62 59 58 55 53 49
77 75 82 84 83 86 88 92 96 102 105 108 112 113 117 122 127 130 135 138 144 144 139 132 124 118 114 111 105 98 92 86 82 77 72 69 65 61 57 53 53 52 48 45
80 80 85 88 92 94 95 100 103 108 112 115 119 126 129 130 134 137 141 141 142 137 127 121 116 113 109 103 94 87 83 78 72 69 65 62 58 54 52 50 48 46 46 43
82 85 89 93 98 100 102 107 110 112 115 121 127 131 133 136 138 141 143 139 133 126 118 114 111 106 99 92 87 82 76 72 68 65 61 58 55 52 50 46 45 46 44 42
88 93 96 98 103 104 109 114 118 119 124 129 135 139 140 139 141 141 136 132 122 116 113 110 103 96 90 85 80 76 72 68 64 60 57 55 52 50 46 44 42 43 43 42
97 96 101 104 107 113 117 122 127 127 130 135 144 143 139 138 134 132 126 118 112 112 108 100 94 89 83 80 76 71 68 64 60 57 54 52 48 46 45 41 40 42 38 38
107 105 107 111 115 122 126 128 132 136 138 144 147 139 135 131 126 119 114 113 110 106 99 92 88 82 78 75 70 67 63 60 56 53 51 48 46 44 43 41 40 37 35 34
109 112 115 118 123 128 130 134 139 144 151 147 139 132 126 121 118 114 112 110 105 97 91 86 82 77 74 70 65 63 60 56 54 51 48 46 44 42 40 38 36 33 31 29
115 118 122 124 128 132 137 146 149 154 145 135 127 122 118 114 114 112 108 103 96 90 85 80 76 73 69 65 62 58 55 52 50 49 46 45 43 40 37 35 33 31 30 29
125 127 127 130 134 137 148 149 144 136 133 123 118 115 112 110 108 103 98 92 86 83 79 76 72 68 64 62 57 54 52 50 47 46 46 44 41 38 36 34 33 32 31 28
131 132 135 138 142 148 150 141 135 128 122 114 109 108 108 103 97 93 89 83 80 78 74 70 67 64 61 57 52 50 49 48 47 46 44 42 39 37 34 33 33 31 27 25
134 136 141 143 149 140 135 125 116 111 109 108 105 103 97 93 88 85 80 77 75 70 68 65 63 60 55 52 49 48 47 46 46 44 42 40 37 35 33 32 30 28 26 25
139 142 141 148 135 131 118 112 108 106 104 103 99 91 85 84 80 77 73 71 68 65 63 62 59 54 51 49 48 47 47 46 44 42 40 37 35 33 31 29 27 26 25 24
143 146 144 127 117 111 109 108 105 101 97 91 85 81 79 77 73 68 65 64 62 61 60 58 55 52 49 48 47 46 45 45 43 41 39 37 35 31 29 27 25 25 25 23
145 132 119 110 106 104 104 103 98 92 85 81 79 75 71 67 64 61 60 59 59 58 56 53 51 49 47 47 46 45 43 42 42 40 39 37 34 30 27 26 25 24 24 22
110 106 103 102 101 100 97 93 86 80 76 74 70 67 63 61 59 58 57 56 56 54 51 49 48 47 46 46 45 44 43 40 38 38 37 35 32 29 26 25 24 24 23 22
101 99 99 98 96 90 83 80 76 71 68 66 64 61 59 58 57 56 55 53 52 49 48 47 46 46 45 45 43 44 42 40 37 36 36 33 31 29 28 26 24 25 24 21
95 93 92 87 82 77 73 69 66 64 62 60 59 57 57 57 55 53 51 49 47 46 45 45 46 45 44 44 44 43 41 40 38 36 34 33 30 29 28 28 26 24 23 22
87 85 81 77 72 69 66 64 63 60 58 57 56 56 55 53 50 48 47 46 45 45 45 46 45 44 44 44 42 42 41 40 37 35 34 33 30 28 27 27 26 23 21 21
80 77 71 70 65 63 61 59 58 56 55 55 54 52 50 49 47 45 44 44 44 45 45 45 44 44 43 42 41 41 40 38 35 33 32 31 30 28 27 25 25 23 21 19

GFSNGP_250_spd_018.txt.gz
Wind_Speed
32 31 32 36 37 41 41 43 41 47 53 57 62 64 68 71 75 77 81 83 86 91 95 99 105 108 114 120 125 129 131 135 136 132 123 116 109 103 101 99 95 90 86 82
36 34 37 44 46 47 50 51 51 54 57 63 67 71 73 77 78 81 85 88 93 97 103 107 112 118 123 128 131 135 136 137 133 124 115 109 105 102 97 93 88 82 78 74
39 40 46 51 51 47 50 55 57 60 65 69 73 76 79 81 84 86 90 97 99 101 106 114 121 128 131 133 133 137 136 131 123 112 108 106 102 96 92 87 82 77 73 70
39 43 46 59 52 50 53 58 64 67 71 73 75 77 81 84 89 94 100 106 107 111 117 122 130 139 144 138 134 134 127 120 112 109 108 104 98 92 86 82 79 75 70 66
44 47 45 59 58 59 60 63 70 71 74 78 80 82 89 92 97 100 104 112 114 118 125 130 136 146 141 134 129 125 117 112 111 108 103 97 92 87 81 76 72 68 65 62
51 52 51 60 60 61 64 67 72 75 80 85 88 91 94 95 100 107 113 117 119 129 135 139 146 140 133 129 123 115 112 111 108 102 96 91 85 79 74 70 68 64 62 58
58 56 55 62 65 69 72 73 77 82 88 92 96 98 99 103 109 115 119 123 132 141 142 145 140 133 126 121 115 112 111 105 99 93 89 84 79 74 70 66 63 59 57 53
61 63 64 69 73 77 80 81 86 91 92 96 100 103 108 112 115 120 127 134 141 150 147 143 132 124 119 116 114 111 104 95 89 84 80 76 72 69 65 60 58 56 54 51
66 67 74 76 80 84 86 87 90 98 101 105 107 112 116 121 124 129 134 140 149 148 143 134 123 118 115 114 110 101 92 86 82 78 73 69 66 61 60 57 54 53 51 50
69 76 80 83 85 90 95 98 103 106 108 110 114 118 120 126 128 130 141 143 150 143 132 123 118 114 112 106 97 90 85 81 77 73 69 63 59 57 55 54 53 50 50 48
78 81 83 88 90 95 101 105 108 110 114 117 119 127 132 133 136 141 145 150 143 131 124 117 113 111 105 97 90 85 81 77 73 68 64 61 58 55 54 51 51 51 49 45
86 91 93 94 98 103 106 109 112 118 122 124 129 132 135 138 141 145 152 149 134 126 116 113 108 103 98 91 85 81 77 71 68 65 61 58 57 56 51 50 48 48 46 45
92 96 99 103 104 107 112 116 118 123 127 129 132 137 140 143 149 150 156 133 125 120 115 110 104 98 91 85 81 77 71 67 64 61 57 56 55 54 53 48 44 45 42 40
97 102 106 110 113 116 120 123 128 131 132 136 138 142 146 149 152 150 129 119 116 113 108 102 96 89 84 81 75 70 66 63 61 57 55 54 53 51 49 46 43 38 37 35
109 112 114 116 122 127 127 130 130 134 138 143 145 149 154 152 139 119 117 116 113 106 99 92 88 83 79 74 69 64 64 60 57 54 53 52 51 49 45 42 39 36 33 30
115 118 120 124 130 132 133 138 141 144 146 149 150 145 135 123 118 116 113 109 102 96 91 85 81 77 72 67 63 62 60 57 55 53 52 52 49 45 42 40 37 35 31 29
122 124 126 135 140 138 140 144 145 146 140 134 125 115 110 109 110 110 106 98 92 87 83 80 75 70 65 62 61 59 57 54 52 51 51 50 47 43 41 39 36 33 30 27
131 133 137 142 144 142 138 138 133 130 124 113 107 105 105 107 105 99 92 87 83 80 76 72 68 64 62 59 57 55 53 52 50 50 49 46 44 41 40 37 35 32 29 25
138 139 139 138 136 132 128 126 116 109 107 105 105 105 103 98 90 85 82 79 75 72 69 65 62 60 58 56 53 52 50 50 49 48 46 44 43 40 38 35 32 31 27 25
134 134 129 125 122 119 111 107 103 102 103 103 101 96 89 85 82 79 75 72 69 65 62 61 59 58 55 52 50 49 49 49 48 46 44 42 42 39 35 33 31 29 26 24
128 124 122 116 108 107 105 104 101 101 99 98 93 86 81 78 75 72 69 65 62 61 60 58 56 53 50 49 48 48 47 48 46 45 43 40 39 38 33 31 30 27 26 25
119 113 108 104 102 99 100 102 102 97 93 89 84 79 75 72 69 65 62 61 60 59 57 54 51 49 48 47 47 47 47 46 45 44 42 40 38 37 33 29 29 27 26 25
105 101 99 98 98 98 98 98 95 88 82 78 74 71 69 66 62 61 60 59 57 55 52 50 48 47 47 47 47 46 46 46 43 42 41 40 37 35 33 30 28 28 27 27
99 98 98 98 97 94 90 88 82 76 72 69 67 65 62 60 59 59 57 55 53 51 50 49 48 47 46 46 46 46 46 44 43 42 40 37 35 34 32 31 29 27 28 27
98 96 95 93 88 82 80 76 72 69 66 64 61 59 58 58 57 56 54 52 51 50 49 47 47 46 45 45 46 45 45 44 43 40 38 36 34 32 31 29 28 26 25 26
93 91 87 83 77 73 70 66 65 64 61 59 58 58 57 55 54 53 51 50 48 47 46 45 44 44 45 45 45 44 44 43 40 37 35 35 35 32 29 27 26 26 25 25
85 81 77 72 69 66 63 59 58 58 57 56 55 55 53 52 51 50 49 48 47 46 45 44 44 44 44 43 44 43 42 41 39 36 34 34 33 31 29 28 26 26 26 25

GFSNGP_250_spd_021.txt.gz
Wind_Speed
29 28 29 33 33 30 30 34 37 41 45 49 53 58 63 66 70 71 75 78 81 86 90 93 96 100 106 112 118 124 132 138 143 131 123 117 110 105 102 101 99 93 86 79
35 30 33 38 37 38 38 43 44 45 50 54 59 63 67 70 72 75 77 82 86 92 95 97 102 105 110 116 122 130 132 144 130 121 115 109 102 102 99 95 89 84 79 74
34 35 40 44 42 41 44 49 51 53 55 59 65 67 70 73 76 81 83 91 95 98 101 105 108 112 117 123 125 133 138 130 117 111 108 107 104 97 91 87 82 78 74 69
36 39 40 50 46 46 50 55 56 58 63 67 69 73 79 82 86 91 94 100 105 107 110 112 117 123 128 131 132 135 128 115 110 109 106 101 96 91 86 80 76 72 68 64
40 38 41 53 51 54 56 58 61 64 69 75 80 80 85 90 95 97 102 107 109 112 116 119 125 129 134 136 131 124 114 110 108 106 101 95 89 84 79 75 71 67 63 59
42 41 45 52 54 58 61 61 66 70 76 81 84 85 90 96 100 105 110 113 114 121 124 128 131 134 133 127 119 111 108 107 104 100 94 87 81 77 75 72 68 64 60 55
46 50 53 58 63 66 67 66 71 76 82 85 89 95 99 103 107 112 118 120 124 128 132 136 137 136 127 118 111 108 106 104 98 90 84 80 77 73 70 68 65 62 58 53
53 61 63 67 70 74 75 74 79 84 88 93 97 102 107 109 112 118 123 126 129 135 138 137 134 124 117 109 107 106 105 99 90 84 80 76 71 67 64 62 59 56 54 49
61 68 72 73 75 76 78 81 85 92 97 98 103 108 113 117 121 125 132 135 135 137 138 133 123 115 109 107 108 106 97 90 85 81 76 70 67 63 61 57 54 51 49 47
67 75 76 78 79 81 85 91 95 100 102 105 113 116 119 124 128 131 137 136 134 132 130 120 113 110 107 106 103 96 89 85 82 76 72 68 63 59 56 54 52 51 48 46
73 77 77 83 85 92 95 99 102 105 108 113 114 121 128 133 136 137 136 131 125 121 113 109 107 108 105 101 95 89 84 81 76 72 67 64 61 56 54 52 52 52 49 46
79 83 84 88 92 98 102 106 110 114 116 119 124 127 132 136 136 129 125 119 112 108 108 106 105 104 101 94 88 84 80 75 71 67 64 60 58 57 51 49 48 48 45 42
85 86 91 98 100 106 110 114 114 119 122 125 128 133 131 129 121 115 112 107 105 104 104 103 103 98 92 86 83 78 75 71 67 64 61 58 56 55 55 50 43 43 41 38
92 96 101 106 111 115 117 118 121 125 126 127 128 128 125 118 112 110 108 106 103 102 101 99 95 91 87 81 77 73 70 67 64 62 58 56 55 54 52 50 45 39 36 35
100 103 107 113 118 121 122 124 126 126 125 124 124 121 116 111 107 104 103 101 100 101 97 93 88 84 79 75 72 68 66 64 62 58 55 54 53 52 50 46 41 38 35 34
107 112 115 118 122 126 125 125 124 126 126 123 116 111 109 106 102 99 100 99 97 93 90 84 79 76 73 70 67 65 63 61 57 54 53 53 52 50 47 44 40 38 35 32
112 116 120 123 125 127 127 125 123 119 116 111 107 105 103 102 100 98 98 95 90 86 80 76 73 70 67 65 63 61 59 56 52 51 51 51 50 48 45 44 40 38 35 31
121 120 120 121 121 121 120 119 117 113 111 107 104 103 103 102 95 92 88 85 81 76 73 70 67 65 64 62 59 57 54 52 50 50 49 49 47 46 43 42 40 37 34 30
121 118 119 119 119 118 116 114 108 108 109 106 103 102 101 95 89 84 81 76 72 70 66 64 63 61 59 57 55 52 51 49 49 49 47 46 45 44 43 41 40 35 32 29
121 119 116 116 113 114 113 110 106 106 106 101 98 97 92 88 83 79 74 70 67 64 62 61 60 58 55 54 52 50 49 49 48 47 45 45 43 43 42 41 39 35 32 28
115 114 114 110 109 109 109 107 104 105 101 97 95 90 86 81 77 73 69 65 62 61 60 59 56 54 52 51 50 49 48 46 46 45 44 43 43 43 42 40 37 34 32 29
114 113 111 109 107 103 104 103 104 100 95 91 87 82 78 74 71 67 64 61 60 59 58 56 53 52 50 50 49 47 45 44 44 43 43 43 43 41 40 38 36 33 31 29
112 110 107 104 101 99 99 100 97 92 86 81 77 74 72 68 64 63 61 59 58 56 55 53 51 50 48 47 46 44 43 43 42 42 42 42 41 40 39 37 35 32 29 28
106 103 101 99 98 96 93 91 88 83 79 73 71 69 66 63 61 60 58 56 55 53 52 51 49 48 46 45 45 44 41 41 42 42 41 41 40 39 38 36 33 30 28 27
99 98 97 95 94 90 84 80 79 75 72 69 66 63 62 60 58 57 56 53 52 50 49 48 47 46 45 45 43 42 42 41 41 41 41 40 39 37 35 34 31 29 28 26
94 92 90 90 86 78 76 71 70 68 66 64 62 60 59 58 56 54 52 50 49 47 46 46 46 45 43 42 42 42 41 41 40 40 40 38 37 37 35 32 30 28 27 27
88 86 84 80 76 72 69 66 65 63 60 59 58 58 56 55 52 50 49 47 47 47 47 46 44 43 42 41 41 41 41 40 40 39 37 37 36 36 35 32 30 29 28 28

GFSNGP_250_spd_024.txt.gz
Wind_Speed
28 28 32 31 29 28 29 33 33 37 42 45 52 57 60 63 66 69 71 76 80 81 86 93 98 103 105 109 113 116 120 127 132 134 130 126 123 117 110 107 103 98 90 84
35 34 36 36 33 33 37 38 38 41 45 52 57 60 65 69 71 73 76 81 84 89 94 99 103 105 111 115 120 125 129 137 130 125 121 116 109 108 105 102 95 88 82 78
37 36 40 44 40 42 42 43 44 47 52 56 61 65 70 70 74 78 83 88 93 95 98 104 107 113 118 124 129 133 133 126 121 117 110 104 104 103 97 90 84 79 76 72
37 36 41 47 42 43 44 48 50 54 60 64 68 68 73 74 80 86 92 95 97 100 106 111 115 119 128 132 134 128 121 117 112 105 101 101 99 93 87 83 79 74 69 65
40 37 41 47 43 45 47 56 59 64 67 69 71 73 78 82 87 93 98 101 106 108 112 118 123 130 132 127 119 116 113 107 101 100 100 96 90 85 81 78 72 69 66 61
44 42 44 47 47 49 53 57 64 70 73 74 76 78 83 88 95 100 105 106 110 116 122 127 131 135 128 119 112 109 106 101 99 99 95 89 83 80 76 71 68 65 63 57
47 49 47 47 50 55 59 63 69 72 76 77 82 88 91 96 101 105 111 114 118 123 127 130 132 123 114 110 107 104 101 99 97 93 87 82 77 74 70 66 65 62 57 51
50 53 50 55 58 62 67 71 73 77 80 83 89 95 100 103 107 111 117 122 127 127 127 127 118 111 108 106 104 102 100 97 91 86 81 77 73 70 65 63 62 58 53 48
52 58 58 60 65 70 73 75 79 82 87 92 97 101 106 110 114 119 126 131 127 124 119 115 111 108 105 103 101 101 97 91 85 80 76 72 69 65 62 61 58 54 50 47
57 66 65 70 73 74 79 83 84 91 96 100 101 106 110 118 125 130 131 124 119 114 110 109 108 105 103 102 100 96 91 84 79 75 72 68 64 61 60 58 55 51 49 48
64 68 72 74 77 80 85 87 92 98 102 104 107 113 118 124 127 126 118 113 111 108 107 107 104 104 100 97 92 88 83 78 75 72 68 65 63 60 57 53 52 50 49 46
68 72 75 79 83 87 88 93 100 105 107 110 116 121 125 127 125 120 112 108 106 108 106 103 100 97 94 90 85 81 77 74 71 68 65 63 61 58 55 50 48 48 45 43
75 79 83 87 88 91 98 102 106 109 114 119 123 128 131 125 120 116 111 108 106 105 103 99 96 92 88 83 78 75 73 70 66 65 63 61 58 55 52 49 46 43 42 39
82 84 88 92 98 102 104 107 113 116 121 124 129 128 126 124 119 116 111 108 105 104 98 95 89 84 80 76 73 71 68 66 65 62 60 57 55 52 50 49 46 42 39 37
89 93 97 101 104 107 111 115 116 118 123 123 127 128 124 122 116 112 109 106 103 99 93 87 82 78 75 73 69 67 65 64 61 58 55 54 52 50 49 47 45 40 36 35
98 101 104 106 109 112 116 120 119 124 124 124 124 120 121 117 112 107 104 101 96 91 86 81 77 75 72 68 66 64 62 59 56 54 52 50 50 49 47 45 43 39 35 34
105 107 110 114 117 120 123 124 123 124 121 122 118 118 114 111 107 103 100 96 90 84 79 76 74 70 67 64 63 60 56 53 52 51 50 49 48 46 46 43 40 38 36 32
111 114 117 119 118 118 117 119 121 122 122 117 116 112 107 104 100 96 93 88 83 78 75 72 69 66 63 61 58 55 51 49 49 48 48 47 46 45 43 42 40 38 36 31
111 110 113 114 117 119 119 119 118 118 116 116 112 106 102 99 94 89 84 79 76 73 69 67 65 62 59 57 54 51 49 48 48 48 46 45 45 43 42 41 39 37 34 32
112 115 114 112 113 114 116 117 115 114 114 109 104 99 95 92 87 82 77 74 71 67 66 64 61 59 56 53 51 50 48 47 47 46 46 43 43 42 41 39 37 36 34 31
112 112 111 110 111 113 115 111 111 110 107 104 96 91 88 84 79 76 74 70 67 65 62 60 57 55 53 51 49 48 47 46 45 45 43 42 42 41 40 39 37 35 34 32
109 109 109 110 110 110 111 109 106 105 100 92 88 85 81 78 75 71 67 65 64 61 58 57 54 53 51 49 48 47 47 46 43 42 43 41 40 40 39 38 37 34 32 30
105 106 108 108 106 106 104 102 101 97 89 85 81 78 75 72 70 66 64 61 59 57 56 54 52 50 48 48 48 46 45 43 41 41 41 41 40 39 38 37 35 34 31 28
107 107 105 104 103 99 96 96 92 86 83 79 75 72 70 67 64 62 59 57 56 55 53 50 49 48 49 48 46 44 43 42 41 40 40 40 40 38 37 36 35 33 31 29
104 101 100 99 97 93 91 87 84 80 77 74 71 68 65 63 61 58 56 54 53 52 50 49 49 48 47 45 44 43 43 42 41 40 39 39 39 37 37 36 33 31 30 29
98 96 94 93 90 87 83 78 76 74 71 70 66 64 62 59 56 55 54 52 50 49 48 48 47 46 45 44 44 44 43 42 41 40 39 38 38 37 36 35 34 31 29 29
90 88 87 86 83 79 76 72 70 69 65 63 62 59 57 55 54 52 51 49 48 48 48 47 45 44 44 45 44 43 43 42 40 39 38 37 37 37 36 35 33 30 28 28

GFSNGP_250_spd_027.txt.gz
Wind_Speed
30 31 34 35 34 35 37 38 38 42 45 47 48 50 54 55 59 65 69 73 75 78 83 88 93 98 103 109 113 118 124 127 127 132 133 131 125 121 115 111 108 106 105 101
36 37 42 44 42 42 42 41 41 45 48 50 52 52 58 63 67 73 74 78 80 85 89 95 101 106 110 117 123 129 132 135 134 129 121 117 116 112 108 105 106 104 98 91
40 40 47 48 47 46 47 46 47 49 50 50 52 58 64 69 74 76 78 80 85 93 99 104 110 116 120 126 131 134 130 124 118 115 114 112 109 106 105 105 100 94 88 82
41 42 49 49 46 46 48 47 48 49 50 53 58 64 69 74 76 79 81 87 94 99 105 110 116 122 127 132 135 128 119 115 111 110 109 107 104 104 101 95 89 84 78 72
45 44 47 47 48 48 50 52 49 50 54 59 64 70 77 77 81 85 90 97 103 105 110 116 123 129 133 135 125 119 114 111 110 108 107 105 102 96 90 85 80 76 70 66
47 46 47 49 47 50 47 47 53 57 62 68 72 74 79 83 88 90 99 106 110 113 118 125 129 132 131 127 119 116 111 110 108 106 104 100 94 87 82 77 74 69 66 61
53 53 49 48 52 52 54 56 59 61 68 74 77 82 86 88 91 99 104 110 115 121 126 131 133 132 124 119 116 112 109 106 105 102 98 91 84 78 73 70 66 64 62 58
59 58 52 52 53 55 59 62 64 69 74 77 82 85 88 93 100 105 110 117 124 127 131 134 132 127 118 114 112 107 107 103 100 95 89 82 75 71 68 64 63 62 58 54
65 63 60 59 59 61 64 64 70 75 78 83 86 91 96 100 106 112 118 125 131 132 131 131 125 120 115 110 110 102 101 97 92 86 80 74 69 66 65 64 62 58 52 50
64 67 65 64 67 67 71 74 78 81 85 90 95 100 104 108 116 121 126 131 131 132 130 124 119 116 109 105 102 100 93 88 83 77 72 68 65 64 62 60 57 53 50 48
65 67 67 68 72 74 77 80 84 88 93 98 101 105 112 117 120 124 130 132 133 131 126 118 114 108 105 102 96 90 84 79 74 70 66 65 64 62 58 53 51 50 49 47
66 69 71 73 75 79 85 89 91 96 102 107 109 113 114 120 125 128 132 133 133 129 121 114 107 104 99 92 87 81 76 72 68 65 63 62 60 57 55 51 48 47 46 45
70 72 75 78 82 87 90 93 99 103 105 109 112 116 121 127 128 129 131 133 130 124 114 105 101 95 88 83 78 75 70 67 65 63 61 58 55 53 50 48 48 48 44 43
75 78 81 86 90 93 96 100 103 106 109 113 117 122 129 131 128 131 134 131 124 112 103 100 95 87 81 77 73 69 67 65 63 60 57 55 52 49 49 48 45 43 44 40
82 85 89 92 96 99 102 104 107 110 114 119 122 128 129 130 130 131 130 123 112 104 98 94 86 80 76 72 69 66 64 62 59 57 54 52 49 48 47 45 44 43 40 38
88 91 95 100 101 104 105 108 111 116 120 122 125 126 129 129 128 127 122 110 102 96 93 87 80 76 72 68 66 63 61 59 56 54 51 49 47 46 46 45 43 41 39 37
95 98 102 102 104 105 109 112 116 119 119 122 124 125 125 125 124 117 107 103 96 91 86 79 75 71 68 66 63 60 58 56 53 51 49 47 46 46 46 43 42 40 38 34
98 101 103 105 108 111 114 117 119 120 123 123 122 121 122 121 112 101 98 94 89 85 78 74 70 68 65 63 60 58 56 53 51 49 48 47 47 45 43 43 40 38 36 34
102 106 107 109 111 112 113 117 120 125 124 124 120 119 117 109 100 95 91 87 83 78 73 69 67 64 62 59 57 56 53 51 50 48 48 46 44 43 43 41 40 37 34 32
109 111 113 114 116 117 119 122 123 121 121 119 115 112 105 100 94 89 86 82 76 72 69 67 64 61 59 57 56 54 51 51 49 47 45 44 44 42 42 41 39 36 32 31
112 111 112 113 114 114 118 121 117 115 115 113 107 101 98 94 89 85 80 76 72 68 66 64 61 59 57 56 53 52 52 50 47 45 44 43 42 41 40 40 38 35 32 31
113 112 111 111 113 114 115 114 114 112 109 104 100 95 91 87 83 78 74 70 68 66 63 61 59 57 55 53 53 52 50 47 45 45 45 43 41 40 39 39 38 36 33 30
106 106 110 112 110 108 109 110 108 104 100 98 95 89 84 81 76 73 70 67 65 62 60 58 56 54 52 52 52 51 48 46 46 46 45 43 42 40 39 38 37 36 33 31
107 108 107 105 105 105 103 104 100 98 96 92 86 81 77 75 72 69 67 64 61 60 58 55 53 52 52 52 50 48 47 47 47 46 44 44 42 40 39 38 37 36 34 31
106 106 104 104 102 102 101 97 95 93 87 83 80 75 73 70 67 66 64 60 58 57 55 53 53 53 51 50 49 49 49 49 48 46 44 42 41 40 38 38 37 35 33 30
103 103 102 101 100 95 93 90 87 83 77 76 75 70 68 66 63 62 59 57 55 54 53 53 52 50 50 50 50 50 49 48 46 45 42 40 40 39 38 37 36 34 32 30
100 98 95 93 92 87 84 82 77 75 72 69 68 65 64 62 59 58 56 55 53 52 52 52 51 51 51 50 49 48 47 45 43 42 41 40 40 39 37 35 34 33 32 30